Retour au catalogue

STARLINK-37741

ActifCommunicationsVLEO
NORAD 100297·PAYLOAD·🇺🇸 United States

Lancé Aug 11, 2026 depuis Cape Canaveral Space Force Station

Loading…

Prochains Passages (prochaines 24 heures)

TLE

PériméSource: Space-Track

Époque: Sep 6, 2026, 13:44 UTC

1 A0297U 26183AB  26249.57255112 -.00711468  00000-0 -42991-2 0  9995
2 A0297  53.1586 325.4830 0004377   9.4428 350.6675 15.78761694  4124

Suivez STARLINK-37741 en temps réel avec AllMySat

Download on the App Store